This demonstration page uses our WeatherBlox Daily Observations layout. Learn more.

Left ArrowRight Arrow

Hourly Observations for March 27, 2022

Temp ( °F °C ) Dew Point ( °F °C ) Humidity (%) Winds ( mph kmh ) Pressure ( in mb ) Visibility ( mi km ) Precip ( " mm )
12:56 am 00:56 Mostly Clear 32 0 14 -10 47 47 ENE 10 17 30.21 1023 10 16 0.00 0.00
1:56 am 01:56 Mostly Cloudy 33 0.6 11 -11.7 40 40 ENE 14 22 30.20 1023 10 16 0.00 0.00
2:56 am 02:56 Partly Cloudy 32 0 12 -11.1 43 43 ENE 13 20 30.21 1023 10 16 0.00 0.00
3:56 am 03:56 Clear 29 -1.7 10 -12.2 45 45 ENE 10 17 30.20 1023 10 16 0.00 0.00
4:56 am 04:56 Partly Cloudy 28 -2.2 10 -12.2 47 47 NE 9 15 30.22 1023 10 16 0.00 0.00
5:56 am 05:56 Mostly Clear 27 -2.8 11 -11.7 51 51 NE 8 13 30.23 1024 10 16 0.00 0.00
6:56 am 06:56 Mostly Clear 26 -3.3 12 -11.1 55 55 ENE 7 11 30.25 1024 10 16 0.00 0.00
7:56 am 07:56 Mostly Cloudy 27 -2.8 14 -10 58 58 E 10 17 30.27 1025 10 16 0.00 0.00
8:56 am 08:56 Sunny 29 -1.7 14 -10 54 54 E 10 17 30.28 1025 10 16 0.00 0.00
9:56 am 09:56 Sunny 33 0.6 11 -11.7 40 40 E 14 22 30.28 1025 10 16 0.00 0.00
10:56 am 10:56 Sunny 35 1.7 10 -12.2 35 35 ESE 14 22 30.28 1026 10 16 0.00 0.00
11:56 am 11:56 Sunny 38 3.3 10 -12.2 31 31 E 10 17 30.28 1025 10 16 0.00 0.00
12:56 pm 12:56 Sunny 41 5 9 -12.8 27 27 ESE 13 20 30.25 1025 10 16 0.00 0.00
1:56 pm 13:56 Sunny 44 6.7 9 -12.8 24 24 SE 14 22 30.21 1023 10 16 0.00 0.00
2:56 pm 14:56 Sunny 46 7.8 11 -11.7 24 24 E 16 26 30.18 1022 10 16 0.00 0.00
3:56 pm 15:56 Sunny 48 8.9 10 -12.2 21 21 ESE 14 22 30.14 1021 10 16 0.00 0.00
4:56 pm 16:56 Sunny 49 9.4 12 -11.1 22 22 ESE 15 24 30.12 1020 10 16 0.00 0.00
5:56 pm 17:56 Sunny 49 9.4 14 -10 25 25 ESE 13 20 30.11 1020 10 16 0.00 0.00
6:56 pm 18:56 Sunny 48 8.9 12 -11.1 23 23 SE 14 22 30.12 1020 10 16 0.00 0.00
7:56 pm 19:56 Clear 42 5.6 12 -11.1 29 29 ESE 10 17 30.13 1020 10 16 0.00 0.00
8:56 pm 20:56 Clear 39 3.9 12 -11.1 33 33 ESE 14 22 30.15 1021 10 16 0.00 0.00
9:56 pm 21:56 Clear 37 2.8 12 -11.1 36 36 ESE 15 24 30.15 1021 10 16 0.00 0.00
10:56 pm 22:56 Clear 34 1.1 12 -11.1 40 40 ESE 15 24 30.15 1021 10 16 0.00 0.00
11:56 pm 23:56 Clear 32 0 12 -11.1 43 43 ESE 13 20 30.15 1021 10 16 0.00 0.00

Powered by AerisWeather